Back to catalog

COSMOS 2251 DEB

AliveLEO
NORAD 37108·DEBRIS·🇷🇺 Russia

Launched Jun 16, 1993 from Plesetsk Cosmodrome

Loading…

Next Passes (next 24 hours)

TLE

AgingSource: Space-Track

Epoch: Sep 12, 2026, 02:36 UTC

1 37108U 93036BGE 26255.10842552  .00001744  00000-0  50233-3 0  9999
2 37108  74.0411 293.7133 0094295 301.6827  57.5160 14.42947010894481

Track COSMOS 2251 DEB in real time with AllMySat

Download on the App Store